This is the latest recevied weather packets stored in our database for station/object EA3CO-11. If no packets are shown the sender has not sent any weather packets the latest 10 day(s).
| Time | Temp. | Humidity | Pressure | Rain* | Wind** | Luminosity | Snow |
|---|---|---|---|---|---|---|---|
| 1777597339 | 16.11° C | 81% | 1022.4 hPa | - | - | - | - |
| 1777596439 | 16.11° C | 79% | 1022.5 hPa | - | - | - | - |
| 1777595539 | 16.11° C | 79% | 1022.6 hPa | - | - | - | - |
| 1777594639 | 16.11° C | 78% | 1022.6 hPa | - | - | - | - |
| 1777593739 | 16.11° C | 78% | 1022.6 hPa | - | - | - | - |
| 1777592838 | 16.67° C | 78% | 1022.3 hPa | - | - | - | - |
| 1777591938 | 16.11° C | 79% | 1022.1 hPa | - | - | - | - |
| 1777591038 | 16.67° C | 78% | 1021.8 hPa | - | - | - | - |
| 1777590138 | 16.67° C | 79% | 1021.7 hPa | - | - | - | - |
| 1777589238 | 16.67° C | 80% | 1021.6 hPa | - | - | - | - |
| 1777588337 | 16.67° C | 81% | 1021.5 hPa | - | - | - | - |
| 1777587437 | 16.67° C | 82% | 1021.5 hPa | - | - | - | - |
| 1777586537 | 16.67° C | 81% | 1021.5 hPa | - | - | - | - |
| 1777585636 | 16.67° C | 81% | 1021.6 hPa | - | - | - | - |
| 1777584736 | 16.67° C | 79% | 1021.6 hPa | - | - | - | - |
| 1777583836 | 17.22° C | 76% | 1021.4 hPa | - | - | - | - |
| 1777582936 | 17.22° C | 73% | 1021.3 hPa | - | - | - | - |
| 1777582036 | 17.22° C | 71% | 1021.1 hPa | - | - | - | - |
| 1777581135 | 17.22° C | 69% | 1020.9 hPa | - | - | - | - |
| 1777580235 | 17.22° C | 71% | 1020.8 hPa | - | - | - | - |
| 1777579335 | 17.22° C | 72% | 1020.6 hPa | - | - | - | - |
| 1777578435 | 16.67° C | 87% | 1020.5 hPa | - | - | - | - |
| 1777577535 | 16.67° C | 96% | 1020.3 hPa | - | - | - | - |
| 1777576635 | 16.11° C | 100% | 1020.1 hPa | - | - | - | - |
| 1777575735 | 16.11° C | 100% | 1020 hPa | - | - | - | - |
* Rain since midnight (hover to see other rain measurements)
** Current wind speed in m/s (hover to see current wind gust speed)